| time (UTC) | temp C | wind direction | speed KPH | gust KPH | rain 1hr cm | rain 24hr cm | rain mn cm | humidity % | barometer mb |
| 20260504081500 | 3 | 22 | 0.0 | 3.2 | 0.00 | 0.00 | 0.00 | 83 | 1009.7 |
| 20260504044530 | 2 | 22 | 0.0 | 0.0 | 0.00 | 0.00 | 0.00 | 82 | 1010.3 |
| 20260504043023 | 1 | 22 | 0.0 | 3.2 | 0.00 | 0.00 | 0.00 | 85 | 1010.4 |
| 20260504041619 | 1 | 22 | 0.0 | 0.0 | 0.00 | 0.00 | 0.00 | 84 | 1010.3 |
| 20260504040104 | 0 | 22 | 0.0 | 1.6 | 0.00 | 0.00 | 0.00 | 85 | 1010.3 |
| 20260504034610 | 0 | 22 | 0.0 | 0.0 | 0.00 | 0.00 | 0.00 | 86 | 1010.3 |
| 20260504033016 | 0 | 22 | 0.0 | 1.6 | 0.00 | 0.00 | 0.00 | 86 | 1010.3 |
| 20260504031516 | 0 | 22 | 0.0 | 0.0 | 0.00 | 0.00 | 0.00 | 84 | 1010.3 |
| 20260504024546 | 0 | 22 | 0.0 | 0.0 | 0.00 | 0.00 | 0.00 | 83 | 1010.3 |
| 20260504023038 | 1 | 22 | 0.0 | 0.0 | 0.00 | 0.00 | 0.00 | 81 | 1010.4 |
| 20260504021535 | 1 | 22 | 0.0 | 1.6 | 0.00 | 0.00 | 0.00 | 80 | 1010.5 |
| 20260504020033 | 1 | 22 | 0.0 | 0.0 | 0.00 | 0.00 | 0.00 | 79 | 1010.4 |
| 20260504014530 | 2 | 22 | 0.0 | 0.0 | 0.00 | 0.00 | 0.00 | 76 | 1010.2 |
| 20260504013030 | 2 | 22 | 0.0 | 0.0 | 0.00 | 0.00 | 0.00 | 75 | 1010.1 |
| 20260504011521 | 3 | 22 | 0.0 | 0.0 | 0.00 | 0.00 | 0.00 | 71 | 1009.9 |
| 20260504010016 | 3 | 22 | 0.0 | 0.0 | 0.00 | 0.00 | 0.00 | 67 | 1009.7 |
| 20260504004514 | 4 | 22 | 0.0 | 0.0 | 0.00 | 0.00 | 0.00 | 65 | 1009.4 |
| 20260504003038 | 5 | 22 | 0.0 | 0.0 | 0.00 | 0.00 | 0.00 | 65 | 1009.3 |
| 20260504001534 | 6 | 22 | 0.0 | 0.0 | 0.00 | 0.00 | 0.00 | 61 | 1009.1 |
| 20260504000001 | 7 | 22 | 0.0 | 1.6 | 0.00 | 0.00 | 0.00 | 53 | 1008.9 |
| 20260503234558 | 7 | 22 | 0.0 | 1.6 | 0.00 | 0.00 | 0.00 | 47 | 1008.8 |
| 20260503233052 | 8 | 22 | 0.0 | 6.4 | 0.00 | 0.00 | 0.00 | 48 | 1008.6 |
| 20260503231553 | 8 | 24 | 1.6 | 6.4 | 0.00 | 0.00 | 0.00 | 45 | 1008.6 |
| 20260503230050 | 8 | 20 | 0.0 | 4.8 | 0.00 | 0.00 | 0.00 | 43 | 1008.6 |
| 20260503224547 | 9 | 33 | 1.6 | 6.4 | 0.00 | 0.00 | 0.00 | 44 | 1008.6 |
| 20260503223019 | 9 | 36 | 3.2 | 9.7 | 0.00 | 0.00 | 0.00 | 44 | 1008.5 |
| 20260503221518 | 9 | 18 | 4.8 | 8.0 | 0.00 | 0.00 | 0.00 | 43 | 1008.6 |
| 20260503220013 | 10 | 40 | 1.6 | 16.1 | 0.00 | 0.00 | 0.00 | 45 | 1008.5 |
| 20260503214511 | 10 | 14 | 1.6 | 9.7 | 0.00 | 0.00 | 0.00 | 44 | 1008.5 |
| 20260503213013 | 10 | 40 | 4.8 | 14.5 | 0.00 | 0.00 | 0.00 | 43 | 1008.4 |
| 20260503211509 | 10 | 28 | 4.8 | 14.5 | 0.00 | 0.00 | 0.00 | 43 | 1008.4 |
| 20260503210009 | 10 | 39 | 1.6 | 12.9 | 0.00 | 0.00 | 0.00 | 44 | 1008.4 |
| 20260503204506 | 10 | 289 | 4.8 | 16.1 | 0.00 | 0.00 | 0.00 | 42 | 1008.4 |
| 20260503203105 | 9 | 288 | 3.2 | 17.7 | 0.00 | 0.00 | 0.00 | 43 | 1008.4 |
| 20260503201504 | 10 | 48 | 4.8 | 14.5 | 0.00 | 0.00 | 0.00 | 43 | 1008.4 |
| 20260503200002 | 10 | 69 | 4.8 | 19.3 | 0.00 | 0.00 | 0.00 | 40 | 1008.3 |
| 20260503194601 | 10 | 44 | 4.8 | 29.0 | 0.00 | 0.00 | 0.00 | 43 | 1008.5 |
| 20260503193112 | 10 | 29 | 1.6 | 20.9 | 0.00 | 0.00 | 0.00 | 43 | 1008.6 |
| 20260503191600 | 10 | 30 | 3.2 | 17.7 | 0.00 | 0.00 | 0.00 | 42 | 1008.7 |
| 20260503190107 | 10 | 65 | 3.2 | 16.1 | 0.00 | 0.00 | 0.00 | 42 | 1008.8 |
| 20260503184556 | 10 | 360 | 4.8 | 20.9 | 0.00 | 0.00 | 0.00 | 41 | 1008.7 |
| 20260503183101 | 10 | 31 | 6.4 | 24.1 | 0.00 | 0.00 | 0.00 | 42 | 1008.8 |
| 20260503181551 | 10 | 355 | 8.0 | 22.5 | 0.00 | 0.00 | 0.00 | 41 | 1008.5 |
| 20260503180056 | 10 | 36 | 6.4 | 17.7 | 0.00 | 0.00 | 0.00 | 42 | 1008.4 |
| 20260503174548 | 12 | 65 | 11.3 | 19.3 | 0.00 | 0.00 | 0.00 | 37 | 1008.2 |
| 20260503173107 | 10 | 211 | 4.8 | 22.5 | 0.00 | 0.00 | 0.00 | 37 | 1008.2 |
| 20260503171551 | 11 | 247 | 6.4 | 19.3 | 0.00 | 0.00 | 0.00 | 40 | 1007.9 |